Wind_Speed
13 13 11 11 14 16 18 18 18 16 14 12 13 15 20 26 25 24 22 19 19 15 13 13 10 7 6 11 11 16 15 17 14 14 3 12 10 9 11 12 13 11 10 11 12
12 11 12 12 12 13 16 17 18 17 14 13 12 14 18 27 27 25 25 20 20 17 16 12 8 8 6 6 27 33 25 25 18 8 8 13 9 6 14 12 15 14 12 11 12
13 12 12 13 12 13 14 16 17 17 14 13 14 13 16 28 29 27 25 21 21 18 14 11 7 8 11 21 11 26 26 23 23 7 4 7 6 9 17 12 14 14 14 13 13
14 13 12 11 12 12 14 15 16 17 14 13 14 13 15 27 31 29 27 23 21 18 16 11 8 9 4 26 26 21 26 21 17 5 5 6 6 10 12 12 13 13 13 15 15
15 15 13 12 11 12 13 15 16 17 15 15 15 14 14 27 31 29 27 25 21 19 18 14 13 7 10 16 29 31 25 21 14 8 1 3 9 8 9 12 13 13 14 16 18
15 15 15 13 12 12 13 14 15 17 17 16 15 14 15 25 31 29 27 25 22 20 19 17 16 10 6 28 22 39 28 19 18 10 7 11 18 19 20 24 23 23 23 23 23
15 14 15 16 14 15 15 14 15 16 16 16 15 13 14 24 31 29 28 27 23 21 19 18 9 15 4 22 5 17 35 20 21 17 11 10 16 16 13 17 18 18 18 18 17
16 14 14 15 15 16 16 15 15 16 16 17 15 11 12 21 30 30 28 27 24 21 19 16 13 10 17 18 11 15 24 22 20 21 16 15 15 15 9 9 14 13 12 15 16
17 16 15 14 15 16 17 16 15 16 18 17 15 10 12 17 27 31 28 26 23 21 18 17 14 13 15 19 23 20 30 29 12 18 16 14 4 14 9 8 13 13 12 11 12
16 16 15 15 16 17 16 17 16 16 18 19 15 15 17 20 28 32 29 26 22 21 20 17 19 18 17 33 12 14 22 14 15 12 15 7 7 8 15 11 14 13 13 8 6
15 15 15 16 17 18 18 18 17 17 14 15 17 16 15 19 24 32 30 27 23 21 19 17 23 26 25 18 15 15 30 24 20 18 12 9 10 8 8 13 13 9 6 9 6
15 14 16 17 17 18 19 20 17 14 13 17 16 15 14 16 27 29 32 28 25 20 20 24 26 22 21 15 5 22 26 21 16 11 13 15 5 7 7 13 9 5 6 4 7
18 16 15 15 17 19 21 20 18 19 14 17 15 17 16 17 21 29 32 28 24 23 24 23 22 21 19 16 13 23 16 21 15 5 11 19 12 9 5 17 12 10 4 4 4
24 21 18 16 16 19 19 18 19 19 14 13 14 14 18 17 21 26 32 30 28 26 25 25 19 20 19 10 21 17 12 15 18 16 3 3 3 5 19 18 14 13 11 6 1
29 26 23 20 19 17 18 18 18 19 17 19 15 19 18 13 19 22 27 33 30 28 29 28 32 24 23 19 20 21 16 17 21 13 9 14 17 22 22 25 19 14 15 13 19
32 31 27 24 23 18 17 15 17 17 14 17 12 15 18 18 19 23 26 31 29 31 33 31 35 20 19 28 26 27 15 19 13 14 18 15 21 19 22 25 25 17 7 17 20
32 31 30 29 27 24 21 17 16 13 15 11 8 12 17 20 18 21 26 31 34 35 36 32 29 21 33 24 23 28 8 16 16 19 19 21 25 25 23 31 26 13 22 26 19
30 32 30 29 30 29 26 21 13 18 17 11 8 7 13 18 19 20 22 29 33 33 30 31 25 27 28 28 26 29 15 23 19 24 24 18 20 28 32 34 32 25 24 20 23
26 29 32 33 29 33 31 26 13 21 29 17 11 20 14 13 18 21 21 23 28 30 30 28 26 14 19 23 32 30 26 21 29 28 26 27 16 21 28 35 32 30 27 18 24
26 27 33 34 33 32 35 29 21 31 32 30 27 16 14 11 12 22 22 21 21 22 29 28 22 24 31 30 33 35 30 29 29 31 28 11 31 32 31 33 29 23 19 20 24
25 28 30 31 35 36 31 29 25 34 35 32 33 26 27 24 21 17 21 16 21 22 24 26 31 30 30 31 27 36 40 35 30 32 26 23 16 17 9 23 27 23 22 25 25
23 28 25 30 35 35 32 27 30 36 38 34 28 33 32 31 24 32 20 19 16 10 18 22 29 33 28 35 36 44 38 34 31 29 25 14 18 26 16 18 21 19 23 24 27
24 26 24 27 30 33 32 30 31 37 41 37 31 37 35 35 32 30 31 25 16 21 22 17 26 28 40 35 29 32 33 24 21 24 26 27 17 18 19 6 23 28 29 36 38
23 25 29 31 33 34 33 34 34 34 38 38 36 33 40 35 39 36 33 29 32 35 31 30 35 33 39 35 32 8 23 31 12 19 28 28 11 13 23 20 28 29 35 38 42
25 32 29 23 28 32 36 34 34 36 33 42 45 42 35 38 47 44 39 35 25 33 36 36 35 32 25 17 15 15 21 15 11 24 21 26 23 22 20 23 28 29 34 40 43
22 25 24 24 24 25 34 35 32 36 36 31 45 42 37 41 45 48 43 42 26 26 27 34 36 42 46 28 24 13 0 1 11 14 8 14 31 30 23 30 28 35 45 49 50
22 27 29 27 29 26 22 29 35 33 37 33 17 30 39 39 40 40 47 49 47 31 33 39 39 40 37 33 34 34 25 17 19 28 28 27 33 40 40 38 44 49 50 47 46
Wind_Direction
265 259 262 265 250 241 238 233 224 222 227 239 241 229 210 202 196 191 190 185 184 186 185 189 179 208 180 192 169 144 122 102 62 14 98 92 80 85 76 67 98 98 98 100 99
260 261 264 263 254 240 230 224 225 222 231 236 242 238 217 203 195 191 192 187 182 188 194 196 211 216 141 161 168 152 126 114 108 50 36 88 86 89 89 80 83 93 97 99 98
256 263 263 258 247 237 232 229 228 226 233 241 241 245 224 202 195 192 191 188 183 192 191 175 213 183 166 145 122 112 114 73 89 59 55 66 106 109 91 89 88 89 92 93 91
258 259 259 258 250 240 236 234 232 229 234 243 240 244 226 204 196 194 191 188 185 190 187 177 203 233 35 136 126 102 105 106 134 139 61 65 79 89 97 95 88 85 86 85 82
259 255 252 251 249 241 241 239 235 231 237 242 239 243 226 205 194 196 193 190 185 190 188 178 181 201 216 125 141 102 104 94 73 88 273 66 100 76 84 95 96 95 90 89 85
261 257 249 247 248 248 244 239 235 235 240 236 237 242 227 207 193 198 195 193 187 194 191 179 200 172 358 142 133 132 108 101 94 115 70 78 114 104 98 100 101 98 94 91 88
258 257 250 243 246 250 245 240 240 236 233 234 235 243 230 211 196 200 196 197 190 197 198 196 197 227 23 140 144 322 131 132 146 156 153 121 113 94 91 99 100 100 99 95 89
256 256 252 241 243 245 241 241 240 236 233 233 234 239 235 212 199 204 199 199 194 200 204 205 197 197 111 138 141 148 137 165 174 160 166 149 96 92 92 105 99 94 94 100 99
255 253 246 239 242 242 239 241 243 239 233 232 231 230 234 217 204 205 202 202 198 201 209 210 212 190 166 174 153 166 164 182 145 187 163 160 137 100 132 128 101 89 83 90 101
257 251 244 233 239 242 241 244 244 238 231 229 227 227 224 209 202 204 206 207 201 201 206 219 201 178 192 183 180 136 165 148 119 108 137 150 79 53 147 135 101 74 69 74 50
264 256 243 229 234 241 243 247 248 250 242 232 228 230 221 217 205 205 209 208 206 201 207 200 184 190 192 188 187 158 167 169 173 140 131 142 90 41 75 159 124 98 48 80 57
265 264 253 236 231 240 245 249 254 258 233 228 232 225 227 226 209 207 208 209 208 197 199 198 190 200 192 199 282 188 172 157 150 115 127 105 45 104 44 346 343 71 150 84 72
259 259 261 250 238 237 241 244 249 251 241 243 236 224 224 217 220 205 209 210 207 199 200 194 201 203 203 178 194 166 194 139 132 172 183 156 172 147 270 271 322 323 131 121 52
255 252 253 259 253 246 247 248 243 251 243 240 234 220 229 222 215 206 206 209 207 198 204 197 207 228 184 195 164 202 197 136 141 142 55 40 250 294 253 274 279 307 330 335 346
252 251 247 248 253 254 241 237 241 243 243 236 234 220 218 218 211 206 212 208 207 204 207 203 209 223 177 167 210 259 253 170 145 137 177 221 240 231 255 251 262 279 328 339 324
249 247 246 245 245 248 254 248 238 230 228 245 215 222 222 212 218 207 203 213 206 210 212 211 218 207 185 181 217 235 244 178 149 187 198 223 238 230 246 248 252 285 348 337 311
249 246 244 242 242 240 242 239 235 222 209 237 243 234 218 212 219 216 211 207 209 211 215 229 227 198 189 201 226 231 237 152 185 201 197 224 236 251 226 222 254 285 316 312 304
248 244 242 240 235 239 238 238 224 196 155 109 316 245 220 220 218 223 217 210 208 216 215 224 239 219 202 221 227 220 197 213 202 218 219 222 214 209 192 217 245 281 297 300 298
251 243 240 237 236 234 236 234 200 186 182 170 190 267 213 220 223 220 225 218 212 215 218 217 223 229 246 237 228 222 215 196 220 232 234 218 195 188 191 196 226 255 267 291 293
251 245 239 234 234 234 233 231 199 191 208 188 175 191 206 269 257 228 219 226 215 223 215 218 196 218 235 250 234 227 212 218 230 242 260 266 209 184 196 224 229 241 256 273 290
255 246 241 236 232 234 232 229 201 200 216 215 198 187 179 188 231 274 244 213 217 229 213 207 207 218 241 245 238 234 218 224 228 245 262 273 266 242 264 214 206 258 311 271 286
257 251 234 238 237 234 230 224 209 207 222 222 213 201 191 182 191 216 259 237 236 214 238 209 211 227 247 252 248 255 221 219 227 237 250 265 263 297 325 303 314 275 290 277 284
252 255 247 240 239 237 231 226 221 212 221 225 221 201 201 192 191 202 211 209 229 226 235 227 236 232 247 248 256 244 196 208 227 241 238 247 258 294 296 245 271 282 284 292 297
250 248 241 236 229 229 226 220 217 213 225 227 223 214 206 208 200 196 199 202 214 233 222 214 230 244 251 257 258 257 216 203 233 240 250 235 241 252 287 264 267 272 281 287 288
252 252 257 253 250 234 225 222 227 213 211 227 230 226 213 204 207 203 197 197 219 226 231 216 223 230 239 241 285 255 220 186 240 228 239 247 235 256 240 236 247 253 259 266 272
258 254 254 246 243 245 236 224 217 221 205 223 232 233 222 219 211 213 202 196 208 224 225 230 232 230 231 214 202 272 116 226 255 230 237 238 232 237 233 248 241 244 251 261 270
259 250 246 240 240 232 230 229 215 216 215 207 230 240 228 227 226 220 211 208 208 215 226 228 234 234 233 227 220 221 210 194 220 226 205 219 235 234 235 246 255 256 256 260 266
Height
5887 5887 5887 5887 5888 5888 5888 5889 5890 5892 5893 5894 5895 5896 5898 5901 5904 5907 5911 5913 5914 5917 5917 5918 5920 5918 5919 5921 5925 5923 5927 5926 5928 5930 5931 5929 5930 5929 5928 5928 5930 5930 5931 5932 5932
5885 5885 5885 5885 5885 5886 5886 5886 5888 5889 5891 5892 5893 5893 5895 5898 5902 5906 5909 5911 5913 5916 5916 5919 5920 5918 5920 5915 5917 5915 5923 5922 5926 5933 5932 5932 5932 5932 5931 5932 5932 5932 5933 5934 5935
5883 5883 5883 5883 5884 5884 5884 5885 5885 5887 5889 5889 5890 5891 5892 5895 5900 5903 5907 5910 5912 5915 5916 5921 5917 5919 5917 5921 5922 5921 5922 5922 5925 5934 5936 5934 5934 5935 5933 5935 5935 5935 5936 5936 5937
5880 5881 5881 5881 5881 5882 5882 5882 5883 5885 5886 5887 5888 5888 5890 5893 5899 5901 5905 5909 5911 5914 5916 5921 5921 5918 5916 5918 5919 5924 5926 5928 5933 5938 5937 5937 5935 5934 5935 5937 5938 5938 5938 5938 5939
5877 5878 5879 5879 5879 5879 5880 5881 5881 5882 5884 5884 5885 5886 5888 5891 5896 5900 5904 5908 5910 5913 5916 5921 5921 5921 5915 5919 5923 5922 5928 5931 5937 5940 5940 5938 5938 5936 5937 5938 5939 5941 5941 5941 5941
5874 5875 5876 5877 5877 5877 5878 5878 5879 5880 5881 5882 5883 5884 5885 5889 5895 5898 5903 5907 5910 5911 5914 5920 5921 5922 5912 5918 5921 5921 5923 5930 5933 5941 5941 5939 5940 5939 5941 5940 5941 5943 5943 5944 5944
5871 5872 5872 5873 5874 5875 5875 5876 5877 5878 5878 5879 5880 5881 5883 5886 5891 5895 5900 5904 5908 5910 5913 5918 5916 5922 5918 5920 5916 5908 5924 5924 5926 5935 5940 5939 5940 5941 5943 5943 5944 5944 5945 5946 5946
5868 5869 5869 5869 5870 5871 5872 5873 5874 5875 5876 5877 5878 5880 5882 5885 5889 5895 5899 5902 5906 5909 5912 5918 5919 5922 5921 5924 5923 5930 5928 5927 5933 5937 5937 5938 5938 5942 5945 5947 5946 5947 5948 5948 5948
5864 5865 5865 5866 5867 5868 5869 5870 5870 5871 5872 5874 5877 5878 5879 5882 5888 5892 5897 5901 5904 5908 5911 5915 5917 5921 5925 5928 5926 5927 5929 5930 5937 5930 5937 5941 5941 5942 5944 5947 5947 5947 5949 5950 5950
5860 5861 5861 5862 5864 5865 5866 5867 5867 5868 5869 5871 5874 5876 5877 5879 5884 5889 5895 5899 5903 5906 5909 5912 5916 5921 5919 5921 5922 5926 5931 5931 5933 5934 5942 5944 5940 5942 5943 5947 5946 5948 5948 5949 5950
5857 5857 5858 5858 5860 5861 5863 5864 5865 5866 5867 5869 5871 5873 5875 5877 5882 5887 5892 5896 5900 5904 5907 5909 5912 5913 5919 5921 5924 5930 5929 5928 5932 5938 5938 5939 5942 5942 5942 5945 5947 5949 5949 5949 5950
5854 5854 5855 5855 5856 5857 5859 5860 5862 5864 5865 5865 5867 5870 5872 5875 5877 5883 5888 5894 5898 5903 5905 5907 5910 5911 5917 5922 5925 5921 5924 5928 5934 5935 5939 5942 5945 5943 5942 5942 5945 5947 5949 5949 5950
5850 5851 5851 5851 5852 5853 5854 5856 5858 5858 5861 5863 5866 5868 5869 5871 5875 5879 5885 5891 5896 5900 5902 5906 5910 5913 5916 5921 5926 5923 5926 5928 5930 5931 5938 5937 5941 5943 5943 5948 5945 5944 5947 5948 5949
5844 5846 5847 5848 5849 5848 5850 5852 5853 5855 5858 5861 5862 5865 5865 5869 5872 5875 5881 5887 5891 5897 5901 5904 5908 5912 5918 5923 5923 5920 5925 5929 5932 5928 5935 5934 5944 5941 5944 5946 5947 5943 5943 5946 5949
5838 5840 5842 5843 5844 5845 5846 5846 5849 5851 5854 5856 5860 5860 5863 5868 5868 5872 5878 5882 5888 5894 5897 5902 5903 5905 5912 5923 5920 5915 5920 5929 5932 5933 5939 5946 5947 5946 5944 5944 5943 5942 5942 5943 5942
5830 5832 5835 5837 5838 5842 5842 5844 5844 5849 5850 5851 5857 5858 5861 5864 5866 5868 5873 5878 5885 5889 5891 5894 5897 5901 5914 5915 5917 5916 5917 5924 5925 5932 5935 5939 5939 5940 5941 5941 5938 5940 5944 5944 5943
5820 5824 5827 5830 5833 5834 5837 5839 5843 5844 5847 5850 5852 5854 5857 5860 5863 5865 5869 5873 5879 5883 5887 5892 5898 5904 5907 5912 5912 5917 5916 5919 5926 5929 5931 5933 5934 5935 5937 5935 5936 5938 5942 5945 5946
5811 5815 5819 5821 5825 5827 5831 5835 5840 5842 5845 5850 5849 5851 5854 5857 5860 5862 5865 5869 5874 5879 5888 5892 5892 5903 5909 5908 5912 5914 5918 5922 5922 5922 5926 5928 5921 5928 5923 5935 5935 5936 5939 5940 5939
5803 5806 5810 5813 5816 5819 5824 5828 5836 5838 5838 5840 5848 5849 5850 5854 5857 5859 5862 5865 5871 5877 5883 5888 5892 5898 5902 5903 5906 5912 5915 5921 5914 5914 5918 5922 5918 5920 5920 5920 5930 5932 5933 5936 5937
5795 5798 5799 5803 5807 5811 5816 5824 5830 5832 5831 5832 5838 5846 5851 5852 5855 5856 5859 5863 5866 5872 5878 5884 5888 5890 5892 5896 5901 5900 5910 5910 5907 5906 5911 5909 5910 5918 5921 5923 5925 5924 5927 5933 5933
5786 5788 5791 5796 5798 5802 5809 5817 5824 5826 5827 5830 5832 5839 5841 5846 5851 5855 5856 5861 5863 5868 5871 5878 5882 5885 5887 5891 5894 5897 5899 5902 5906 5904 5907 5907 5904 5910 5911 5912 5912 5914 5919 5926 5928
5778 5778 5785 5786 5791 5795 5802 5808 5814 5817 5818 5821 5827 5833 5836 5839 5842 5845 5853 5856 5862 5865 5867 5872 5879 5879 5883 5881 5883 5886 5893 5893 5895 5903 5905 5906 5906 5905 5903 5907 5897 5910 5915 5919 5920
5771 5771 5776 5779 5783 5787 5794 5799 5803 5808 5810 5816 5819 5826 5832 5833 5836 5841 5846 5852 5859 5859 5863 5869 5869 5871 5867 5874 5881 5876 5881 5887 5891 5895 5899 5904 5905 5898 5901 5899 5906 5907 5905 5904 5905
5764 5764 5764 5766 5771 5776 5782 5788 5792 5799 5804 5809 5810 5815 5823 5829 5831 5835 5841 5847 5851 5852 5856 5858 5862 5862 5864 5870 5868 5869 5870 5877 5886 5888 5891 5894 5901 5898 5896 5902 5899 5899 5898 5897 5896
5756 5753 5758 5766 5766 5768 5771 5779 5785 5788 5795 5802 5802 5805 5813 5818 5823 5828 5835 5840 5841 5845 5848 5853 5854 5860 5861 5866 5859 5861 5868 5872 5880 5883 5888 5894 5894 5890 5892 5891 5895 5896 5893 5889 5888
5751 5751 5754 5754 5756 5761 5764 5770 5776 5781 5784 5790 5792 5799 5805 5810 5813 5820 5828 5832 5834 5838 5841 5844 5848 5852 5854 5863 5866 5860 5867 5866 5877 5882 5884 5889 5881 5884 5885 5888 5887 5886 5879 5882 5884
5742 5743 5743 5748 5748 5752 5758 5761 5765 5773 5777 5779 5786 5789 5794 5801 5805 5811 5817 5823 5823 5827 5831 5836 5840 5843 5848 5857 5861 5859 5864 5870 5874 5876 5874 5878 5873 5874 5877 5879 5874 5874 5874 5878 5880